Back to catalog

ANOKHIN S.N.

AliveNavigationSSO
NORAD 57193·PAYLOAD·🇷🇺 Russia
This satellite name has not been confirmed by official sources yet.

Launched Jun 27, 2023 from Vostochny Cosmodrome

Loading…

Next Passes (next 24 hours)

TLE

FreshSource: Space-Track

Epoch: Sep 14, 2026, 15:05 UTC

1 57193U 23091AD  26257.62903118  .00011855  00000-0  35890-3 0  9990
2 57193  97.4965 324.4308 0010874 135.9947 224.2163 15.34276274178152

Track ANOKHIN S.N. in real time with AllMySat

Download on the App Store